Blue Canyon, CA

11:41 AM PDT on September 26, 2017 (GMT -0700)
Blue Canyon-Nyack

Weather History for KBLU - October, 2012

Change the Weather History Date:

Tuesday, October 2, 2012

  Actual Average Record
Temperature  
Mean Temperature 74 °F -  
Max Temperature 81 °F 67 °F 88 °F (1980)
Min Temperature 68 °F 51 °F 33 °F (1967)
Cooling Degree Days 9    
Growing Degree Days 24 (Base 50)    
Moisture  
Dew Point 26 °F    
Average Humidity 17    
Maximum Humidity 24    
Minimum Humidity 13    
Precipitation  
Precipitation 0.00 in - - ()
Sea Level Pressure  
Sea Level Pressure 29.85 in    
Wind  
Wind Speed 3 mph (NW)    
Max Wind Speed 9 mph    
Max Gust Speed 16 mph    
Visibility 10 miles    
Events      
Averages and records for this station are not official NWS values.
T = Trace of Precipitation, MM = Missing Value Source: NWS Daily Summary

Daily Weather History Graph

Daily Weather History Graph

Search for Another Location

Airport or City:

Trip Planner

Search our weather history database for the weather conditions in past years. The results will help you decide how hot, cold, wet, or windy it might be!

Date:

Astronomy

Oct. 02, 2012 Rise Set
Actual Time 7:00 AM PDT 6:42 PM PDT
Civil Twilight 6:33 AM PDT 7:09 PM PDT
Nautical Twilight 6:02 AM PDT 7:40 PM PDT
Astronomical Twilight 5:31 AM PDT 8:11 PM PDT
Moon 8:00 PM PDT (10/2) 9:31 AM PDT (10/2)
Length of Visible Light 12h 35m
Length of Day
11h 42m
Waning Gibbous, 93% of the Moon is Illuminated
Oct 2
Waning Gibbous
Oct 8
Last Quarter
Oct 15
New
Oct 21
First Quarter
Oct 29
Full

Hourly Weather History & Observations

Time (PDT) Temp. Dew Point Humidity Pressure Visibility Wind Dir Wind Speed Gust Speed Precip Events Conditions
12:52 AM 73.0 °F 25.0 °F 17% 29.88 in 10.0 mi North 3.5 mph - N/A   Clear
1:52 AM 72.0 °F 25.0 °F 17% 29.87 in 10.0 mi NE 4.6 mph - N/A   Clear
2:52 AM 73.0 °F 24.1 °F 16% 29.86 in 10.0 mi NE 3.5 mph - N/A   Clear
3:52 AM 72.0 °F 23.0 °F 16% 29.86 in 10.0 mi Calm Calm - N/A   Clear
4:52 AM 72.0 °F 21.9 °F 15% 29.84 in 10.0 mi NE 3.5 mph - N/A   Clear
5:52 AM 71.1 °F 23.0 °F 16% 29.86 in 10.0 mi NE 4.6 mph - N/A   Clear
6:52 AM 72.0 °F 23.0 °F 16% 29.87 in 10.0 mi NE 3.5 mph - N/A   Clear
7:52 AM 72.0 °F 25.0 °F 17% 29.88 in 10.0 mi Calm Calm - N/A   Clear
8:52 AM 75.9 °F 23.0 °F 14% 29.87 in 10.0 mi Calm Calm - N/A   Clear
9:52 AM 77.0 °F 21.9 °F 13% 29.88 in 10.0 mi West 4.6 mph - N/A   Clear
10:52 AM 78.1 °F 24.1 °F 14% 29.87 in 10.0 mi West 5.8 mph - N/A   Clear
11:52 AM 80.1 °F 27.0 °F 14% 29.86 in 10.0 mi Variable 3.5 mph - N/A   Clear
12:52 PM 80.1 °F 24.1 °F 13% 29.84 in 10.0 mi Variable 4.6 mph - N/A   Clear
1:52 PM 80.1 °F 25.0 °F 13% 29.83 in 10.0 mi SW 9.2 mph - N/A   Clear
2:52 PM 79.0 °F 25.0 °F 14% 29.82 in 10.0 mi Variable 6.9 mph 16.1 mph N/A   Clear
3:52 PM 79.0 °F 27.0 °F 15% 29.82 in 10.0 mi WSW 8.1 mph - N/A   Clear
4:52 PM 78.1 °F 26.1 °F 15% 29.82 in 10.0 mi WSW 6.9 mph - N/A   Clear
5:52 PM 75.9 °F 25.0 °F 15% 29.83 in 10.0 mi SW 5.8 mph - N/A   Clear
6:52 PM 72.0 °F 27.0 °F 19% 29.84 in 10.0 mi South 3.5 mph - N/A   Clear
7:52 PM 70.0 °F 28.0 °F 21% 29.85 in 10.0 mi Calm Calm - N/A   Clear
8:52 PM 70.0 °F 30.0 °F 23% 29.84 in 10.0 mi Calm Calm - N/A   Clear
9:52 PM 69.1 °F 30.0 °F 23% 29.84 in 10.0 mi Calm Calm - N/A   Clear
10:52 PM 68.0 °F 30.0 °F 24% 29.84 in 10.0 mi Calm Calm - N/A   Clear
11:52 PM 69.1 °F 28.9 °F 22% 29.82 in 10.0 mi Calm Calm - N/A   Clear